DateTimeUTC,F1_A11,F1_S11,BsB_S11,BsG_S11,BsR_S11,BbsB_S11,BbsG_S11,BbsR_S11,BaB_A11,BaG_A11,BaR_A11,Tu_S11,T_S11,Uu_S11,U_S11,P_S11,T1_A11
2021-12-26T01:00:00Z,00000200,21000000,,,,,,,0000.03,0000.39,0000.25,19.2,26.5,,00.0,0657.2,31.1
2021-12-26T01:01:00Z,00000200,21000000,,,,,,,-000.05,0000.09,-000.53,19.2,26.5,,00.0,0657.2,31.1
2021-12-26T01:02:00Z,00000200,21000000,,,,,,,0000.33,-000.13,0000.59,19.2,26.5,,00.0,0657.2,31.1
2021-12-26T01:03:00Z,00000200,61000000,,,,,,,0000.11,0000.46,0000.06,19.2,26.5,,00.0,0657.2,31.2
2021-12-26T01:04:00Z,00000200,41000000,0000.22,0000.34,0000.20,-000.57,0000.22,-000.20,0000.22,0000.18,0000.00,19.6,26.4,,00.0,0658.1,31.2
2021-12-26T01:05:00Z,00000200,01000000,-000.10,0000.18,-000.20,0000.29,0000.05,0000.00,-000.09,-000.36,0000.06,19.7,26.4,,00.0,0658.1,31.2
2021-12-26T01:06:00Z,00000200,01000000,0000.67,-000.06,0000.25,0000.55,0000.05,0000.08,0000.36,0000.36,0000.12,19.7,26.4,,00.0,0658.1,31.2
2021-12-26T01:07:00Z,00000200,01000000,0000.43,0000.18,0000.62,0000.86,0000.05,0000.27,-000.06,0000.39,0000.15,19.7,26.4,,00.0,0658.1,31.2
2021-12-26T01:08:00Z,00000200,01000000,0000.19,0000.26,-000.12,-000.11,-000.01,0000.00,-000.01,-000.23,-000.30,19.8,26.4,,00.0,0658.1,31.2
2021-12-26T01:09:00Z,00000200,01000000,0000.54,0000.04,0000.40,0000.64,-000.04,0000.14,0000.36,0000.25,0000.14,19.8,26.4,,00.0,0658.1,31.2
2021-12-26T01:10:00Z,00000200,01000000,0000.85,0000.22,-000.02,0000.75,-000.06,0000.16,0000.07,-000.01,0000.20,19.8,26.4,,00.0,0658.1,31.2
2021-12-26T01:11:00Z,00000200,01000000,0000.29,0000.03,0000.21,0000.05,0000.21,-000.29,-000.27,-000.09,0000.13,19.7,26.4,,00.0,0658.1,31.2
2021-12-26T01:12:00Z,00000200,01000000,0000.72,0000.31,0000.06,0000.05,0000.24,-000.06,0000.31,0000.23,-000.10,19.7,26.4,,00.0,0658.1,31.1
2021-12-26T01:13:00Z,00000200,01000000,0000.07,0000.22,0000.14,0000.31,-000.04,-000.16,0000.24,0000.34,0000.02,19.7,26.4,,00.0,0658.1,31.1
2021-12-26T01:14:00Z,00000200,01000000,0000.48,0000.09,0000.13,0000.61,0000.18,-000.05,0000.21,-000.15,0000.21,19.7,26.4,,00.0,0658.1,31.2
2021-12-26T01:15:00Z,00000200,01000000,0000.51,0000.11,-000.10,0000.98,0000.31,-000.04,0000.28,0000.33,0000.21,19.7,26.4,,00.0,0658.1,31.2
2021-12-26T01:16:00Z,00000200,01000000,0000.57,0000.16,-000.07,0000.01,0000.08,-000.09,-000.23,0000.11,-000.05,19.7,26.4,,00.0,0658.1,31.2
2021-12-26T01:17:00Z,00000200,01000000,0001.09,0000.22,0000.05,-000.13,-000.13,0000.04,0000.04,-000.36,-000.06,19.8,26.4,,00.0,0658.1,31.2
2021-12-26T01:18:00Z,00000200,01000000,0000.10,0000.75,-000.30,0000.27,0000.31,-000.25,0000.06,0000.58,0000.14,19.8,26.4,,00.0,0658.0,31.2
2021-12-26T01:19:00Z,00000200,01000000,0000.21,0000.48,0000.08,-000.50,0000.11,-000.06,0000.16,-000.35,-000.10,19.9,26.5,,00.0,0658.1,31.2
2021-12-26T01:20:00Z,00000200,01000000,-000.25,0000.21,0000.13,-000.66,0000.08,-000.24,0000.15,0000.32,0000.16,19.9,26.5,,00.0,0658.1,31.2
2021-12-26T01:21:00Z,00000200,01000000,0000.02,0000.10,-000.15,0000.05,0000.04,0000.01,-000.21,-000.04,0000.23,19.9,26.5,,00.0,0658.1,31.2
2021-12-26T01:22:00Z,00000200,01000000,0000.24,0000.25,0000.11,0000.99,-000.05,-000.33,0000.36,0000.16,-000.02,19.9,26.5,,00.0,0658.1,31.2
2021-12-26T01:23:00Z,00000200,01000000,0000.72,0000.53,-000.14,0000.44,0000.08,0000.09,0000.02,0000.29,0000.18,19.8,26.5,,00.0,0658.1,31.1
2021-12-26T01:24:00Z,00000200,01000000,0000.51,0000.33,0000.23,0000.44,0000.31,0000.03,-000.03,-000.38,-000.31,19.7,26.4,,00.0,0658.1,31.1
2021-12-26T01:25:00Z,00000200,01000000,0000.66,0000.45,0000.29,-000.15,0000.43,0000.16,0000.08,-000.03,0000.02,19.6,26.4,,00.0,0658.1,31.1
2021-12-26T01:26:00Z,00000200,01000000,0000.53,0000.08,0000.02,-000.18,0000.26,0000.03,-000.44,-000.33,-000.14,19.5,26.3,,00.0,0658.1,31.1
2021-12-26T01:27:00Z,00000200,01000000,-000.20,0000.13,-000.11,-000.43,0000.13,0000.04,0000.33,0000.17,0000.10,19.5,26.3,,00.0,0658.1,31.1
2021-12-26T01:28:00Z,00000200,01000000,0000.59,0000.18,-000.27,-000.14,0000.38,-000.37,0000.13,0000.17,-000.08,19.5,26.3,,00.0,0658.1,31.1
2021-12-26T01:29:00Z,00000200,01000000,0001.13,0000.24,-000.30,0000.21,0000.37,-000.26,0000.15,0000.22,0000.17,19.5,26.2,,00.0,0658.1,31.1
2021-12-26T01:30:00Z,00000200,01000000,0000.51,0000.18,-000.30,0000.42,0000.22,-000.32,0000.28,0000.13,0000.05,19.5,26.3,,00.0,0658.1,31.2
2021-12-26T01:31:00Z,00000200,01000000,-000.20,0000.45,0000.07,0000.13,0000.26,-000.01,-000.04,0000.47,0000.52,19.6,26.3,,00.0,0658.1,31.1
2021-12-26T01:32:00Z,00000200,01000000,-000.28,0000.20,0000.21,0000.48,0000.16,0000.18,0000.76,0000.17,0000.09,19.6,26.3,,00.0,0658.1,31.1
2021-12-26T01:33:00Z,00000200,01000000,0000.13,0000.14,0000.03,0000.48,0000.08,-000.25,0000.33,0000.54,0000.47,19.7,26.3,,00.0,0658.1,31.1
2021-12-26T01:34:00Z,00000200,01000000,0000.38,0000.55,0000.09,-000.17,0000.21,0000.00,-000.23,0000.03,-000.04,19.7,26.3,,00.0,0658.1,31.1
2021-12-26T01:35:00Z,00000200,01000000,0000.41,0000.29,0000.18,-000.34,0000.08,-000.21,0000.11,-000.19,0000.03,19.7,26.3,,00.0,0658.1,31.1
2021-12-26T01:36:00Z,00000200,01000000,0000.02,0000.12,-000.16,0000.18,0000.30,0000.30,0000.28,0000.30,0000.34,19.8,26.3,,00.0,0658.1,31.2
2021-12-26T01:37:00Z,00000200,01000000,-000.10,0000.25,0000.03,-000.34,0000.43,-000.07,0000.29,-000.00,-000.25,19.8,26.4,,00.0,0658.1,31.2
2021-12-26T01:38:00Z,00000200,01000000,0000.54,-000.14,0000.19,-000.29,0000.39,0000.10,-000.17,0000.49,-000.01,19.9,26.4,,00.0,0658.1,31.2
2021-12-26T01:39:00Z,00000200,01000000,0000.38,0000.29,-000.08,-000.60,0000.03,-000.20,-000.18,-000.66,-000.20,19.9,26.4,,00.0,0658.1,31.2
2021-12-26T01:40:00Z,00000200,01000000,-000.10,0000.30,0000.10,0000.11,0000.02,0000.14,0000.06,0000.47,0000.05,19.9,26.4,,00.0,0658.1,31.2
2021-12-26T01:41:00Z,00000200,01000000,-000.25,0000.47,-000.01,-000.45,-000.19,-000.12,-000.13,-000.05,0000.10,19.8,26.4,,00.0,0658.1,31.2
2021-12-26T01:42:00Z,00000200,01000000,0000.67,0000.11,-000.26,0000.41,0000.28,-000.18,0000.03,-000.38,-000.23,19.8,26.3,,00.0,0658.1,31.2
2021-12-26T01:43:00Z,00000200,01000000,0000.27,-000.07,0000.27,0000.24,0000.22,0000.09,0000.37,0000.14,0000.21,19.7,26.3,,00.0,0658.1,31.1
2021-12-26T01:44:00Z,00000200,01000000,-000.04,0000.43,0000.26,0000.16,0000.15,-000.12,0000.01,0000.09,0000.10,19.7,26.3,,00.0,0658.1,31.2
2021-12-26T01:45:00Z,00000200,01000000,0000.85,0000.04,0000.13,0000.93,0000.26,0000.42,0000.95,0000.65,0000.20,19.8,26.3,,00.0,0658.1,31.1
2021-12-26T01:46:00Z,00000200,01000000,0000.06,0000.56,0000.40,-000.47,0000.18,0000.55,0000.72,0000.97,0001.08,19.8,26.4,,00.0,0658.0,31.2
2021-12-26T01:47:00Z,00000200,01000000,0000.74,0000.38,0000.17,0000.04,0000.19,0000.12,0001.37,0001.04,0000.77,19.8,26.4,,00.0,0658.0,31.2
2021-12-26T01:48:00Z,00000200,01000000,0001.27,0000.49,0000.29,-000.12,0000.35,0000.05,0001.04,0001.37,0000.78,19.9,26.4,,00.0,0658.0,31.2
2021-12-26T01:49:00Z,00000200,01000000,0000.74,0000.63,0000.36,0000.93,0000.36,0000.08,0001.83,0001.29,0001.29,19.9,26.4,,00.0,0658.0,31.2
2021-12-26T01:50:00Z,00000200,01000000,0000.72,0000.56,0000.19,-000.33,0000.05,-000.05,0001.22,0001.08,0000.93,19.9,26.4,,00.0,0657.9,31.2
2021-12-26T01:51:00Z,00000200,01000000,0000.71,0000.56,0000.07,-000.20,0000.08,-000.02,0001.06,0001.27,0000.82,20.0,26.4,,00.0,0657.9,31.2
2021-12-26T01:52:00Z,00000200,01000000,0000.30,-000.06,0000.15,0000.05,-000.16,0000.07,0001.24,0001.11,0000.95,20.0,26.5,,00.0,0657.9,31.2
2021-12-26T01:53:00Z,00000200,01000000,0000.93,0000.43,0000.43,-000.09,0000.21,0000.13,0000.38,0000.99,0000.48,20.0,26.5,,00.0,0657.9,31.2
2021-12-26T01:54:00Z,00000200,01000000,0000.20,0000.30,0000.26,0000.26,0000.20,-000.02,0001.33,0000.57,0000.31,20.0,26.5,,00.0,0657.9,31.2
2021-12-26T01:55:00Z,00000200,01000000,0000.90,0000.43,0000.71,-000.12,0000.08,0000.07,0000.45,0000.36,0000.50,20.0,26.5,,00.0,0657.9,31.2
2021-12-26T01:56:00Z,00000200,01000000,0001.53,0000.42,0000.21,0000.38,0000.04,0000.02,-000.12,-000.21,-000.01,19.9,26.5,,00.0,0657.9,31.2
2021-12-26T01:57:00Z,00000200,41000000,,,,,,,-000.22,0000.12,-000.23,19.9,26.5,,00.0,0658.0,31.2
2021-12-26T01:58:00Z,00000200,61000000,,,,,,,0000.31,-000.19,0000.68,19.5,26.5,,00.0,0656.9,31.2
2021-12-26T01:59:00Z,00000200,21000000,,,,,,,-000.21,0000.20,-000.43,19.5,26.6,,00.0,0656.9,31.1
